Time,TemperatureF,DewpointF,PressureIn,WindDirection,WindDirectionDegrees,WindSpeedMPH,WindSpeedGustMPH,Humidity,HourlyPrecipIn,Conditions,Clouds,dailyrainin,SolarRadiationWatts/m^2,SoftwareType,DateUTC
2013-03-11 00:00:00,60.1,54.2,30.13,East,94,4.0,23.0,81,0.00,,,0.00,0,Wunderground v.1.15,2013-03-11 04:00:00,
2013-03-11 01:00:00,58.6,53.8,30.12,East,101,3.0,23.0,84,0.00,,,0.00,0,Wunderground v.1.15,2013-03-11 05:00:00,
2013-03-11 02:00:00,57.0,53.2,30.11,ESE,107,1.0,23.0,87,0.00,,,0.00,0,Wunderground v.1.15,2013-03-11 06:00:00,
2013-03-11 03:01:00,50.5,46.2,30.10,ESE,107,0.0,23.0,85,0.00,,,0.00,0,Wunderground v.1.15,2013-03-11 07:01:00,
2013-03-11 04:00:00,46.4,43.6,30.08,ESE,107,0.0,23.0,90,0.00,,,0.00,0,Wunderground v.1.15,2013-03-11 08:00:00,
2013-03-11 05:00:00,48.0,46.9,30.05,East,86,0.0,23.0,96,0.00,,,0.00,0,Wunderground v.1.15,2013-03-11 09:00:00,
2013-03-11 06:00:00,44.8,42.9,30.05,East,86,0.0,23.0,93,0.00,,,0.00,0,Wunderground v.1.15,2013-03-11 10:00:00,
2013-03-11 07:00:00,43.1,41.5,30.06,East,86,0.0,23.0,94,0.00,,,0.00,0,Wunderground v.1.15,2013-03-11 11:00:00,
2013-03-11 08:00:00,51.8,51.0,30.06,SE,135,1.0,23.0,97,0.00,,,0.00,28,Wunderground v.1.15,2013-03-11 12:00:00,
2013-03-11 09:00:00,58.3,57.7,30.06,ESE,119,1.0,23.0,98,0.00,,,0.00,192,Wunderground v.1.15,2013-03-11 13:00:00,
2013-03-11 10:00:00,65.0,58.0,30.07,ESE,104,8.0,23.0,78,0.00,,,0.00,192,Wunderground v.1.15,2013-03-11 14:00:00,
2013-03-11 11:00:00,71.2,57.5,30.06,SE,144,13.0,23.0,62,0.00,,,0.00,552,Wunderground v.1.15,2013-03-11 15:00:00,
2013-03-11 12:00:00,73.6,58.4,30.05,ESE,106,11.0,23.0,59,0.00,,,0.00,828,Wunderground v.1.15,2013-03-11 16:00:00,
2013-03-11 13:01:00,76.8,58.4,30.05,SSE,155,8.0,23.0,53,0.00,,,0.00,510,Wunderground v.1.15,2013-03-11 17:01:00,
2013-03-11 14:00:00,74.8,57.5,30.04,SSE,168,6.0,23.0,55,0.00,,,0.00,251,Wunderground v.1.15,2013-03-11 18:00:00,
2013-03-11 15:00:00,77.2,57.1,30.00,SSE,157,10.0,23.0,50,0.00,,,0.00,991,Wunderground v.1.15,2013-03-11 19:00:00,
2013-03-11 16:00:00,76.4,56.9,29.97,ESE,117,8.0,23.0,51,0.00,,,0.00,327,Wunderground v.1.15,2013-03-11 20:00:00,
2013-03-11 17:00:00,76.4,56.4,29.94,SSE,160,8.0,23.0,50,0.00,,,0.00,162,Wunderground v.1.15,2013-03-11 21:00:00,
2013-03-11 18:00:00,75.1,56.3,29.95,South,169,4.0,23.0,52,0.00,,,0.00,146,Wunderground v.1.15,2013-03-11 22:00:00,
2013-03-11 19:00:00,74.0,56.8,29.94,SSE,159,5.0,23.0,55,0.00,,,0.00,39,Wunderground v.1.15,2013-03-11 23:00:00,
2013-03-11 20:00:00,70.2,56.6,29.92,SE,144,3.0,23.0,62,0.00,,,0.00,0,Wunderground v.1.15,2013-03-12 00:00:00,
2013-03-11 21:00:00,68.4,57.0,29.94,SE,132,3.0,23.0,67,0.00,,,0.00,0,Wunderground v.1.15,2013-03-12 01:00:00,
2013-03-11 22:00:00,67.2,57.5,29.96,SSE,154,2.0,23.0,71,0.00,,,0.00,0,Wunderground v.1.15,2013-03-12 02:00:00,
2013-03-11 23:00:00,62.5,56.9,29.97,SSE,153,0.0,23.0,82,0.00,,,0.00,0,Wunderground v.1.15,2013-03-12 03:00:00,